This is the latest recevied weather packets stored in our database for station/object K7FLA. If no packets are shown the sender has not sent any weather packets the latest 10 day(s).
| Time | Temp. | Humidity | Pressure | Rain* | Wind** | Luminosity | Snow |
|---|---|---|---|---|---|---|---|
| 1777916480 | 15° C | 54% | 1095.6 hPa | 0 mm | - | 298 W/m² | - |
| 1777916177 | 15° C | 54% | 1095.5 hPa | 0 mm | - | 353 W/m² | - |
| 1777915875 | 15° C | 54% | 1095.5 hPa | 0 mm | - | 233 W/m² | - |
| 1777915570 | 15.56° C | 53% | 1095.5 hPa | 0 mm | - | 217 W/m² | - |
| 1777915267 | 15.56° C | 55% | 1095.6 hPa | 0 mm | - | 270 W/m² | - |
| 1777914964 | 15° C | 54% | 1095.5 hPa | 0 mm | - | 289 W/m² | - |
| 1777914661 | 14.44° C | 55% | 1095.5 hPa | 0 mm | - | 309 W/m² | - |
| 1777914357 | 14.44° C | 56% | 1095.4 hPa | 0 mm | - | 192 W/m² | - |
| 1777914055 | 15° C | 55% | 1095.5 hPa | 0 mm | - | 129 W/m² | - |
| 1777913750 | 15° C | 56% | 1095.5 hPa | 0 mm | - | 267 W/m² | - |
| 1777913447 | 15° C | 57% | 1095.4 hPa | 0 mm | - | 200 W/m² | - |
| 1777913144 | 14.44° C | 58% | 1095.4 hPa | 0 mm | - | 189 W/m² | - |
| 1777912840 | 14.44° C | 59% | 1095.4 hPa | 0 mm | - | 278 W/m² | - |
| 1777912537 | 14.44° C | 58% | 1095.3 hPa | 0 mm | - | 189 W/m² | - |
| 1777912233 | 15° C | 56% | 1095.1 hPa | 0 mm | - | 153 W/m² | - |
| 1777911929 | 15° C | 56% | 1095.1 hPa | 0 mm | - | 153 W/m² | - |
| 1777911626 | 15° C | 57% | 1095.1 hPa | 0 mm | - | 122 W/m² | - |
| 1777911322 | 15° C | 57% | 1095 hPa | 0 mm | - | 248 W/m² | - |
| 1777911020 | 15° C | 55% | 1095.1 hPa | 0 mm | - | 177 W/m² | - |
| 1777910717 | 15° C | 58% | 1095 hPa | 0 mm | - | 281 W/m² | - |
| 1777910414 | 14.44° C | 60% | 1095.1 hPa | 0 mm | - | 265 W/m² | - |
| 1777910110 | 14.44° C | 57% | 1095.1 hPa | 0 mm | - | 252 W/m² | - |
| 1777909808 | 15° C | 58% | 1095 hPa | 0 mm | - | 153 W/m² | - |
| 1777909504 | 15° C | 57% | 1094.9 hPa | 0 mm | - | 274 W/m² | - |
| 1777909201 | 15° C | 58% | 1094.9 hPa | 0 mm | - | 216 W/m² | - |
* Rain latest hour (hover to see other rain measurements)
** Current wind speed in m/s (hover to see current wind gust speed)